Sarasota, FL

5:50 AM EST on December 13, 2019 (GMT -0500)
Sarasota-bradenton

Weather History for KSRQ - August, 2019

Change the Weather History Date:

Sunday, August 11, 2019

  Actual Average Record
Temperature  
Mean Temperature 85 °F 82 °F  
Max Temperature 89 °F 90 °F 95 °F (1998)
Min Temperature 80 °F 74 °F 68 °F (1982)
Degree Days  
Heating Degree Days 0 0  
Month to date heating degree days 0 0  
Since 1 June heating degree days 0 0  
Since 1 July heating degree days 0 0  
Cooling Degree Days 20 17  
Month to date cooling degree days 208 187  
Year to date cooling degree days 2479 1949  
Since 1 June cooling degree days 1322 1198  
Growing Degree Days 34 (Base 50)    
Moisture  
Dew Point 78 °F    
Average Humidity 82    
Maximum Humidity 88    
Minimum Humidity 70    
Precipitation  
Precipitation 0.48 in 0.30 in 2.08 in (1962)
Month to date precipitation 3.19 3.02  
Year to date precipitation 31.72 32.21  
Sea Level Pressure  
Sea Level Pressure 29.95 in    
Wind  
Wind Speed 8 mph (WNW)    
Max Wind Speed 20 mph    
Max Gust Speed 24 mph    
Visibility 9 miles    
Events Rain    
T = Trace of Precipitation, MM = Missing Value Source: NWS Daily Summary

Daily Weather History Graph

Daily Weather History Graph

Search for Another Location

Airport or City:

Astronomy

Aug. 11, 2019 Rise Set
Actual Time 6:58 AM EDT 8:11 PM EDT
Civil Twilight 6:34 AM EDT 8:36 PM EDT
Nautical Twilight 6:05 AM EDT 9:05 PM EDT
Astronomical Twilight 5:34 AM EDT 9:35 PM EDT
Moon 5:37 PM EDT (8/11) 3:29 AM EDT (8/11)
Length of Visible Light 14h 01m
Length of Day
13h 12m
Waxing Gibbous, 87% of the Moon is Illuminated
Aug 11
Waxing Gibbous
Aug 15
Full
Aug 23
Last Quarter
Aug 30
New
Sep 5
First Quarter

Hourly Weather History & Observations

Time (EDT) Temp. Heat Index Dew Point Humidity Pressure Visibility Wind Dir Wind Speed Gust Speed Precip Events Conditions
12:53 AM 82.0 °F 91.0 °F 78.1 °F 88% 29.97 in 10.0 mi NW 3.5 mph - N/A   Clear
1:53 AM 82.0 °F 91.0 °F 78.1 °F 88% 29.96 in 10.0 mi NW 3.5 mph - N/A   Clear
2:53 AM 82.0 °F 91.0 °F 78.1 °F 88% 29.95 in 10.0 mi Calm Calm - N/A   Scattered Clouds
3:51 AM 80.6 °F 88.1 °F 78.8 °F 94% 29.94 in 5.0 mi Calm Calm - 0.05 in Rain Light Rain
3:53 AM 81.0 °F 88.6 °F 78.1 °F 91% 29.94 in 4.0 mi ENE 3.5 mph - 0.07 in Rain Heavy Rain
4:53 AM 81.0 °F 87.9 °F 77.0 °F 88% 29.92 in 10.0 mi Calm Calm - 0.08 in   Mostly Cloudy
5:01 AM 81.0 °F 88.6 °F 78.1 °F 91% 29.92 in 10.0 mi Calm Calm - N/A   Partly Cloudy
5:32 AM 82.0 °F 91.0 °F 78.1 °F 88% 29.92 in 6.0 mi South 4.6 mph - 0.05 in Rain Light Rain
5:53 AM 82.9 °F 93.8 °F 79.0 °F 88% 29.93 in 10.0 mi WSW 6.9 mph - 0.05 in   Mostly Cloudy
6:07 AM 82.9 °F 92.8 °F 78.1 °F 85% 29.93 in 10.0 mi WSW 6.9 mph - N/A   Mostly Cloudy
6:53 AM 82.9 °F 92.8 °F 78.1 °F 85% 29.95 in 10.0 mi WSW 5.8 mph - N/A   Clear
7:53 AM 84.0 °F 94.8 °F 78.1 °F 82% 29.97 in 10.0 mi West 9.2 mph - N/A   Scattered Clouds
8:53 AM 82.0 °F 91.0 °F 78.1 °F 88% 29.98 in 9.0 mi WNW 13.8 mph - 0.00 in Rain Light Rain
9:53 AM 82.9 °F 91.8 °F 77.0 °F 82% 29.99 in 10.0 mi WNW 12.7 mph - 0.01 in   Overcast
10:53 AM 82.9 °F 91.8 °F 77.0 °F 82% 30.01 in 10.0 mi WNW 16.1 mph - N/A   Mostly Cloudy
11:53 AM 86.0 °F 98.3 °F 78.1 °F 77% 30.01 in 10.0 mi West 11.5 mph - N/A   Clear
12:53 PM 88.0 °F 103.1 °F 79.0 °F 75% 30.00 in 10.0 mi West 13.8 mph - N/A   Clear
1:53 PM 88.0 °F 101.3 °F 78.1 °F 72% 29.99 in 10.0 mi WNW 13.8 mph - N/A   Clear
2:53 PM 88.0 °F 101.3 °F 78.1 °F 72% 29.96 in 10.0 mi NW 10.4 mph - N/A   Clear
3:53 PM 89.1 °F 104.4 °F 79.0 °F 72% 29.94 in 10.0 mi West 12.7 mph - N/A   Partly Cloudy
4:53 PM 86.0 °F 99.3 °F 79.0 °F 79% 29.92 in 10.0 mi West 11.5 mph - N/A   Scattered Clouds
5:03 PM 87.1 °F 101.5 °F 79.0 °F 77% 29.92 in 10.0 mi WNW 10.4 mph - N/A   Mostly Cloudy
5:53 PM 86.0 °F 96.9 °F 77.0 °F 74% 29.93 in 10.0 mi WNW 9.2 mph - N/A   Partly Cloudy
6:53 PM 86.0 °F 98.3 °F 78.1 °F 77% 29.93 in 10.0 mi WNW 10.4 mph - N/A   Clear
7:53 PM 86.0 °F 99.3 °F 79.0 °F 79% 29.95 in 10.0 mi West 6.9 mph - N/A   Scattered Clouds
8:53 PM 84.9 °F 96.6 °F 78.1 °F 80% 29.95 in 10.0 mi WNW 5.8 mph - N/A   Scattered Clouds
9:53 PM 84.0 °F 94.8 °F 78.1 °F 82% 29.95 in 10.0 mi WNW 4.6 mph - N/A   Scattered Clouds
10:53 PM 84.9 °F 96.6 °F 78.1 °F 80% 29.96 in 10.0 mi WNW 6.9 mph - N/A   Partly Cloudy
11:53 PM 84.9 °F 96.6 °F 78.1 °F 80% 29.96 in 10.0 mi West 6.9 mph - N/A   Clear